RH
57 60 63 64 67 69 71 73 74 75 78 79 81 82 81 80 78 79 82 84 85 87 89 91 92 93 93 93 94 94 93 93 92 93 94 94 95 96 96 94 92 90 91 93 92 91 92 94 95 95 95 94 93 91 89 88 88 87 84 81 83 86 89 91 85 76 73 74 77 79 78 77 79 81 82 85 89 90 90 92 92 90 88 88 88
42 44 46 48 51 54 55 57 59 60 62 65 68 71 73 75 75 75 76 77 79 81 83 85 87 89 90 90 91 91 91 91 91 91 93 94 94 95 95 96 95 93 93 95 95 93 93 94 96 98 98 97 95 93 93 94 92 89 88 86 84 85 86 87 85 79 77 79 80 80 81 81 84 88 90 91 92 93 93 93 93 93 91 91 92
32 35 37 38 39 40 42 44 46 47 49 51 53 57 60 63 66 68 69 70 72 74 76 78 80 82 84 85 86 86 87 88 88 89 91 93 95 95 96 97 97 97 96 97 98 97 96 96 97 98 98 97 96 95 96 99 99 96 95 93 92 92 92 92 92 89 86 86 86 86 88 90 92 94 95 95 96 96 96 95 94 94 94 94 94
26 27 28 29 30 33 36 38 39 39 40 42 43 45 48 50 53 56 58 61 63 65 67 69 70 71 73 76 78 80 82 83 84 85 86 88 90 92 94 95 96 97 98 98 98 99 98 98 97 98 98 98 97 97 98 99 101 100 99 98 97 96 96 96 95 93 89 87 86 86 88 91 93 94 94 95 96 97 98 98 97 96 96 97 97
21 21 21 22 24 26 30 33 35 36 37 38 38 38 39 41 44 45 47 49 51 54 57 59 60 62 63 64 66 67 69 72 74 76 78 81 83 86 89 90 92 93 95 96 97 98 99 99 99 99 99 99 99 99 100 100 100 99 99 99 98 96 95 95 94 93 91 87 86 87 89 91 93 93 95 96 98 99 99 98 98 96 96 96 97
18 19 18 20 22 24 26 27 30 32 33 35 35 36 36 37 38 39 41 42 43 44 46 47 50 53 55 57 59 60 62 63 63 63 65 67 70 74 77 80 83 85 87 89 91 92 94 95 97 99 99 100 100 100 100 100 99 99 99 99 99 97 97 97 97 96 94 92 91 91 92 94 95 95 98 100 99 99 99 98 97 97 96 97 97
16 17 17 20 23 25 26 27 27 28 28 29 30 31 32 32 33 34 35 36 37 38 38 39 40 43 44 46 48 52 56 58 59 59 59 59 59 60 61 63 65 69 72 76 79 82 84 86 88 90 92 94 96 97 98 99 98 98 98 98 99 100 99 99 99 99 98 96 95 94 94 95 96 97 99 100 100 99 99 99 98 97 98 97 96
17 19 21 24 27 28 28 28 27 27 26 26 27 27 27 28 29 30 31 32 32 33 34 35 36 36 37 38 39 41 44 48 51 52 53 54 54 54 54 54 53 54 55 57 60 63 67 70 74 78 81 83 85 87 89 91 92 93 94 95 96 96 95 95 95 95 94 94 92 92 92 91 92 94 96 98 99 99 98 97 96 96 97 95 92
21 24 27 29 30 30 31 30 30 31 31 31 31 32 32 32 32 32 32 33 33 34 35 35 36 36 36 38 39 39 41 43 45 45 46 47 48 48 49 50 51 51 50 50 50 50 51 53 55 58 61 64 68 72 75 77 79 80 83 86 87 88 88 89 89 89 89 89 88 88 88 87 87 90 92 94 95 95 94 92 89 90 91 89 86
24 26 29 31 31 30 30 30 31 33 34 35 36 37 39 39 40 40 39 39 38 38 38 38 38 38 38 39 39 40 41 42 43 44 44 45 45 45 46 47 47 48 48 49 50 50 50 49 48 48 47 47 48 51 54 58 61 63 66 68 70 72 74 75 76 78 79 78 79 81 81 79 81 85 87 89 90 90 90 88 86 86 86 84 83
25 27 29 31 31 30 30 29 30 31 32 33 34 36 38 40 43 45 46 46 46 44 43 42 42 41 41 41 41 40 41 41 42 43 43 43 44 44 44 45 45 45 45 46 46 47 48 49 50 50 50 49 47 46 45 44 45 48 51 54 56 58 59 60 61 63 65 65 67 68 68 68 71 75 76 78 80 81 81 80 80 80 81 80 79
24 26 28 29 29 29 29 30 30 31 31 32 33 33 34 35 37 41 43 45 46 47 46 46 46 46 46 46 45 45 46 46 46 46 46 45 44 45 45 45 45 45 45 44 44 44 45 46 46 47 49 50 51 50 49 48 46 44 43 44 47 50 52 54 55 56 58 59 59 59 60 61 64 66 68 69 70 71 71 71 71 72 73 72 71
22 25 26 27 28 28 28 28 29 29 29 30 31 31 31 31 31 32 34 36 37 38 39 39 40 41 41 42 42 42 43 44 45 45 46 46 46 47 47 47 47 47 47 46 46 45 46 46 46 47 48 49 50 51 52 52 52 51 48 45 44 44 46 50 54 56 57 58 57 57 59 61 62 63 66 67 67 67 68 69 70 70 70 70 70
22 23 24 25 26 26 26 26 25 25 25 26 27 27 27 27 28 28 28 28 29 30 31 32 32 33 34 35 35 36 36 37 38 39 40 42 44 45 47 49 50 51 51 50 50 50 50 49 49 49 51 52 53 54 56 56 57 57 56 56 53 50 47 47 49 53 57 60 60 60 61 63 63 64 65 66 67 68 69 70 71 71 70 70 71
21 21 21 23 23 24 24 24 24 24 23 23 24 24 24 24 24 25 25 25 25 26 26 27 27 27 28 29 29 30 30 30 30 30 30 31 32 33 36 39 43 47 50 52 54 55 57 57 57 55 55 55 56 57 57 58 60 61 62 63 64 63 60 56 52 51 54 57 60 63 65 66 66 66 66 66 66 67 68 70 71 72 72 72 71
20 20 20 21 21 22 23 23 24 23 23 23 23 23 23 23 23 24 23 24 24 24 25 25 24 24 24 24 24 24 24 24 24 24 24 24 24 24 25 26 29 33 38 44 48 52 55 60 64 66 66 66 65 65 63 61 60 62 64 66 67 68 68 68 67 63 60 58 59 63 67 70 72 72 71 70 70 69 69 69 71 74 76 75 74
17 18 20 20 20 21 22 23 24 24 23 23 23 23 23 23 23 23 23 24 24 24 25 25 25 24 24 24 24 24 24 24 23 23 23 22 22 22 23 23 24 26 28 33 39 45 48 52 59 66 71 74 74 73 73 72 70 69 70 71 72 72 73 76 77 75 74 71 69 68 70 74 79 82 82 81 79 77 75 73 74 76 77 76 77
14 16 18 19 20 21 23 23 23 23 22 22 22 22 23 23 23 23 23 23 24 25 25 26 26 26 26 25 25 25 25 25 25 24 24 24 23 23 23 23 23 24 25 27 32 39 45 48 50 56 65 73 77 76 74 75 76 77 77 77 77 78 79 80 79 78 78 79 79 79 78 79 82 85 88 90 90 89 88 85 83 81 79 77 79
12 14 16 17 18 20 21 21 21 21 21 21 21 21 21 21 21 22 23 23 24 25 25 26 27 27 27 27 27 27 27 26 26 26 25 25 24 24 23 23 23 23 24 25 26 32 41 48 50 51 55 63 72 79 79 76 75 77 78 78 78 80 80 79 79 79 79 79 80 82 83 84 85 86 87 90 92 93 94 95 95 92 88 85 83
13 14 15 16 17 18 19 19 19 19 19 20 20 19 19 19 19 20 21 23 24 25 26 27 29 29 29 29 29 29 29 28 27 27 26 26 25 25 24 24 24 23 24 24 25 27 34 45 52 53 53 55 60 71 80 82 79 77 77 78 77 78 77 77 77 77 79 80 81 83 85 87 89 89 90 90 90 91 91 93 95 95 94 93 91
13 14 14 15 16 17 18 17 17 17 17 18 18 17 17 17 18 19 20 21 23 24 25 26 28 29 30 30 31 31 30 29 29 28 27 26 26 26 25 25 25 25 24 25 26 26 29 39 49 52 54 55 55 59 71 82 84 82 80 79 79 77 77 76 76 76 78 80 83 84 85 87 89 91 92 92 92 92 92 91 91 92 93 95 96
13 14 14 15 16 16 16 16 15 15 15 16 16 16 16 17 17 17 18 19 20 21 23 24 26 27 28 29 30 31 31 30 30 29 28 28 27 26 26 26 26 26 25 26 27 27 28 34 44 50 53 57 57 55 61 73 82 86 85 83 82 80 77 76 76 78 80 83 85 86 86 87 88 90 92 93 93 94 94 94 94 92 91 93 97
14 13 14 15 16 16 15 14 14 14 14 14 14 15 16 16 16 16 16 17 18 19 19 21 23 24 26 27 28 29 31 31 31 30 29 28 28 27 27 26 26 27 27 27 28 30 30 33 42 50 54 57 58 57 58 66 76 85 89 87 85 83 79 77 77 79 83 86 87 86 86 87 88 90 93 94 95 95 96 97 98 97 95 94 96
19 16 15 14 15 15 15 14 14 13 13 14 14 14 15 15 15 15 15 15 16 16 18 19 21 23 25 26 28 29 30 31 32 31 30 29 28 27 26 26 26 27 28 30 31 33 34 37 45 53 56 57 58 58 61 67 74 82 89 90 88 85 82 79 79 82 86 88 88 88 88 88 89 91 94 95 95 96 96 98 100 101 100 97 96
25 22 20 18 17 16 15 15 15 15 14 15 15 15 15 14 14 15 14 14 15 16 18 19 20 23 25 27 29 30 31 32 32 31 31 29 28 27 26 26 27 28 29 32 35 38 41 46 52 56 57 58 58 60 67 73 76 80 87 91 90 87 84 81 82 85 88 89 90 90 91 90 90 91 93 94 95 96 98 100 100 101 101 100 98
27 26 25 24 23 21 20 18 17 16 16 17 17 17 16 16 15 15 14 14 15 17 18 19 21 23 26 27 29 30 31 32 32 32 31 30 28 27 27 28 29 31 33 35 39 45 50 53 56 58 59 60 61 65 71 75 76 80 88 92 90 86 83 83 85 89 90 90 90 90 90 91 91 92 93 94 96 99 100 101 101 101 101 100 99
26 27 26 26 26 26 26 25 23 21 20 19 19 19 18 18 17 16 15 15 15 17 19 21 22 24 26 28 30 31 32 33 33 33 32 30 29 28 29 31 33 35 38 41 45 50 54 56 58 61 63 65 66 70 73 75 77 84 90 91 89 86 85 86 89 90 90 90 91 90 90 91 92 93 93 94 97 99 100 101 101 100 100 101 101
26 26 26 26 26 26 27 27 27 27 26 25 23 21 20 20 19 18 17 16 17 18 20 22 24 26 28 29 31 32 33 34 34 33 32 31 29 29 30 33 37 41 44 47 50 52 55 58 63 67 70 72 73 75 77 79 83 89 92 90 89 89 90 91 91 91 90 90 91 91 91 92 93 94 94 95 96 98 99 100 100 100 100 101 101
26 26 26 25 25 26 27 28 29 30 30 30 29 28 25 22 21 20 20 19 20 20 21 23 25 26 28 31 33 33 34 35 35 34 33 31 29 29 31 35 39 43 46 49 51 53 56 62 68 72 75 76 77 79 82 86 91 93 92 91 92 95 95 94 92 91 90 91 92 91 91 93 94 95 96 97 98 98 99 99 100 100 100 100 100
26 26 26 25 24 25 26 28 30 31 32 33 33 33 31 28 25 23 22 22 22 23 23 25 26 27 28 30 33 35 35 36 36 34 33 31 29 30 33 36 40 44 47 49 51 54 59 66 71 75 78 80 80 83 88 93 95 94 93 93 96 98 98 96 93 90 90 91 93 93 92 93 94 96 97 98 100 100 99 99 100 100 100 100 100
27 27 27 25 25 25 26 29 31 33 34 34 35 35 34 33 30 28 26 25 25 24 24 25 27 28 29 31 34 36 36 37 37 35 33 31 29 30 33 37 41 45 48 49 51 54 61 68 72 75 79 83 85 88 93 96 97 97 96 97 98 100 100 97 93 91 91 92 93 94 95 95 96 97 99 99 100 100 100 100 100 100 100 100 100
29 29 28 27 26 27 28 30 32 34 35 36 37 37 36 35 34 32 30 28 27 27 26 26 27 29 30 32 34 36 37 38 38 35 33 31 29 30 34 38 41 45 48 49 51 54 62 69 71 74 81 87 91 93 95 97 98 99 100 99 100 101 100 98 94 93 93 93 93 94 96 97 98 99 100 100 100 100 100 100 100 100 100 100 100
32 31 30 29 28 29 31 33 34 36 37 38 39 39 39 38 37 35 33 31 29 29 29 29 28 28 30 32 35 37 39 40 39 36 34 31 29 30 33 38 42 46 48 49 50 54 62 68 71 76 84 91 95 96 96 97 98 99 100 100 100 100 99 97 95 94 95 95 96 97 98 99 100 100 100 100 100 100 100 100 101 100 100 99 98
38 35 33 32 32 33 35 36 38 39 40 42 42 42 42 41 39 38 35 33 31 31 30 30 30 29 30 32 35 37 39 41 40 37 34 31 29 29 32 37 43 46 48 49 49 54 63 68 71 77 87 94 97 98 98 98 99 100 100 100 99 99 99 99 98 98 98 99 99 100 101 101 101 101 101 100 101 101 100 100 100 99 98 97 96
46 41 38 37 37 38 39 40 41 42 44 45 46 45 46 45 44 42 39 36 34 33 31 30 30 30 31 33 35 37 39 41 40 38 34 32 30 28 29 35 42 46 48 49 49 53 63 69 72 78 89 95 96 98 99 99 99 100 100 100 100 99 99 100 101 101 101 101 101 101 101 101 101 100 100 100 100 100 100 99 99 98 95 93 88
52 50 46 43 42 43 44 44 45 47 48 49 49 49 49 50 49 47 44 41 38 36 34 31 30 31 32 33 35 37 40 41 41 39 36 33 31 28 27 32 40 46 48 50 50 53 61 68 72 77 87 94 96 97 99 99 98 99 100 100 100 99 99 99 100 100 100 101 101 101 100 100 100 100 100 99 99 99 98 96 94 90 84 79 72
55 55 53 51 49 48 49 50 51 52 52 52 51 52 53 54 54 53 50 47 43 40 38 35 33 32 32 32 34 36 38 40 41 40 37 34 32 29 27 29 36 44 49 50 51 54 60 67 71 75 83 91 94 95 96 97 98 98 99 99 99 99 99 99 99 100 100 100 100 100 100 99 99 99 98 97 95 92 89 85 80 74 69 63 57
57 58 59 58 56 55 55 56 56 57 56 55 54 54 55 56 57 57 55 52 49 45 42 39 37 35 33 33 33 34 36 38 39 39 38 36 33 30 28 27 32 40 47 50 51 53 58 64 70 72 78 86 92 93 93 95 96 97 97 98 98 98 99 100 100 99 98 97 96 96 95 95 94 93 91 89 85 80 76 72 67 62 57 52 48
59 61 62 63 63 63 62 62 62 61 60 58 56 56 56 58 60 60 59 57 54 51 48 44 41 39 36 35 34 34 34 35 37 37 38 37 35 32 29 28 29 34 42 48 52 52 55 60 67 70 73 79 88 92 92 93 95 97 97 97 98 98 98 99 99 97 95 94 93 93 91 89 88 85 81 76 72 68 64 61 57 52 49 47 45
60 62 64 65 66 66 66 66 66 65 63 61 58 57 57 59 61 62 61 60 59 57 54 50 47 43 41 38 36 35 35 35 37 38 38 38 37 34 31 30 29 30 35 42 49 53 54 57 62 67 69 73 80 88 92 92 93 96 97 98 98 98 98 98 97 94 92 90 90 90 88 84 80 76 70 64 60 57 54 52 50 48 48 48 47
59 61 63 65 65 66 67 67 67 66 65 62 60 59 59 60 62 63 63 62 62 62 60 57 53 48 45 42 39 38 37 36 37 39 39 39 38 36 33 32 31 30 31 34 41 48 53 55 58 62 66 69 73 80 88 92 92 93 95 97 98 98 98 98 96 93 90 88 86 83 80 76 70 64 58 54 52 51 50 49 50 51 51 49 45
59 60 62 63 65 65 66 66 66 66 65 63 61 61 61 61 62 63 64 63 64 65 64 63 59 54 49 45 42 40 38 37 37 38 39 39 39 38 35 33 33 32 32 32 34 39 47 54 57 58 62 66 69 72 79 87 92 92 93 94 97 97 97 98 97 94 88 83 79 74 70 65 60 55 52 51 51 51 52 52 53 53 51 46 39
60 61 62 63 64 64 65 65 65 65 64 64 63 63 63 63 63 64 64 65 65 66 66 67 65 60 54 50 45 42 40 38 37 37 37 38 39 38 36 35 34 34 33 33 33 34 38 46 54 58 60 63 65 67 71 78 86 91 92 91 93 95 96 96 95 92 85 78 71 65 61 57 55 52 52 52 53 54 55 56 55 52 46 40 35
57 61 63 65 65 65 65 65 65 65 64 64 64 64 64 64 64 65 66 67 67 67 67 68 68 66 60 54 50 45 42 39 38 37 36 35 37 37 36 36 36 35 35 35 35 34 34 37 44 52 58 61 63 66 68 71 78 86 91 91 90 91 94 94 92 87 81 73 65 59 55 53 53 53 53 54 56 58 58 56 53 47 41 37 35
51 56 60 64 66 67 67 67 66 66 65 65 65 65 64 64 65 66 67 69 69 68 68 69 70 70 66 60 53 48 44 41 39 38 36 34 34 35 35 35 36 37 37 36 36 36 36 35 37 42 50 57 62 65 68 69 71 77 85 91 91 90 90 91 89 84 77 69 62 58 55 54 53 54 54 56 58 58 56 52 47 43 41 40 39
46 50 55 60 64 67 68 67 67 67 66 66 65 65 65 65 66 67 68 70 71 70 69 69 71 72 70 65 58 51 46 42 40 39 37 34 33 33 32 32 33 35 37 38 37 37 37 37 37 37 41 48 55 61 66 70 71 72 76 83 90 93 92 91 88 82 74 67 61 57 56 56 56 56 57 59 59 55 50 46 45 45 45 44 43
45 47 52 56 60 64 67 68 67 67 67 67 66 66 66 66 67 68 69 71 72 72 71 70 71 72 72 69 64 56 49 44 41 40 37 35 34 33 32 30 30 31 34 37 39 39 38 39 39 38 38 41 46 53 60 66 71 73 73 75 80 87 92 94 91 83 75 67 61 58 57 57 57 58 59 59 55 49 45 44 45 46 46 46 45
48 48 50 54 58 61 64 67 68 68 68 68 68 68 68 68 68 69 71 72 73 73 72 71 70 71 72 71 68 62 54 47 43 40 38 35 34 34 34 32 30 29 31 33 35 38 39 40 40 40 40 40 41 45 51 58 64 71 74 74 75 77 83 90 94 90 81 71 63 59 58 57 57 58 58 54 47 43 43 45 46 47 47 48 47
50 50 50 52 56 60 62 65 68 69 69 69 70 69 69 69 70 71 72 73 73 74 73 71 70 70 71 71 70 66 60 52 45 41 38 36 35 34 35 34 32 31 31 32 33 35 37 39 40 41 42 42 41 42 44 49 55 61 68 74 76 75 76 79 85 90 89 82 71 63 59 58 59 59 54 48 43 42 43 45 46 48 49 49 49
51 52 52 53 55 59 62 64 67 70 71 71 71 72 72 72 72 72 72 73 74 74 74 73 71 71 71 71 71 69 65 57 49 43 39 37 35 35 35 36 35 34 33 33 34 35 35 37 39 40 42 43 43 43 43 44 48 52 58 65 71 75 77 76 77 80 84 85 81 72 63 57 56 54 50 44 41 42 44 45 46 48 49 50 51
51 54 55 56 56 59 61 64 67 70 71 72 73 74 75 75 75 74 74 74 74 75 76 76 74 73 72 72 72 71 69 62 54 47 41 38 36 36 36 37 37 36 35 35 35 36 36 37 38 40 42 43 44 44 45 45 45 47 50 55 61 68 73 77 77 77 77 79 81 79 72 63 55 49 46 43 42 42 44 47 49 49 49 49 49